Location: Sternwarte ZA, Rosenfeld-Brittheim
(48.2889°N, 8.6789°E)
Time: 19:39:47
(UTC+02:00)

ISS - Pass Details

Date: 16 July 2019
Orbit: 409 x 418 km, 51.6° (Epoch: 20 July)

Event Time Altitude Azimuth Distance (km) Brightness Sun altitude
Rises 04:43:29 0° 292° (WNW) 2,346 -0.2 -8.1°
Reaches altitude 10° 04:45:37 10° 287° (WNW) 1,481 -1.2 -7.9°
Maximum altitude 04:48:52 54° 209° (SSW) 502 -3.7 -7.5°
Drops below altitude 10° 04:52:06 10° 131° (SE) 1,471 -0.9 -7.1°
Sets 04:54:11 0° 127° (SE) 2,328 0.2 -6.9°
